Location: Predajn�
(48.8169°N, 19.4609°E)
Time: 22:32:12
(UTC+00:00)

Daily predictions for brighter satellites

Satellite Brightness Start Highest point End
(mag) Time Altitude Azimuth Time Altitude Azimuth Time Altitude Azimuth
USA 238 DEB 3.9 16:58:05 10° NW 17:05:17 78° NE 17:12:48 10° SE
USA 238 3.9 16:58:11 10° NW 17:05:23 77° NE 17:12:54 10° SE
Okean 2 4.5 17:02:12 10° NNW 17:06:16 51° W 17:10:17 10° S
Cosmos 1536 Rocket 4.3 17:02:12 10° N 17:06:17 34° ENE 17:10:21 10° SE
Cosmos 1125 Rocket 4.4 17:01:55 10° SSE 17:06:21 27° E 17:10:47 10° NE
Abrixas rocket 1.9 17:05:05 10° W 17:07:55 72° S 17:10:45 10° ESE
CZ-4B R/B 4.1 17:06:15 10° N 17:09:10 25° WNW 17:12:04 10° SW
CREW DRAGON DEMO-1 DEB 2.8 17:06:12 10° WNW 17:09:14 76° NNE 17:12:15 10° ESE
Cosmos 1464 Rocket 4.2 17:04:41 10° SSE 17:10:33 50° E 17:16:30 10° NNE
Cosmos 2150 Rocket 4.4 17:07:48 10° S 17:12:54 45° ESE 17:18:05 10° NNE
CZ-2C R/B 3.2 17:09:06 10° SSE 17:14:26 66° ENE 17:20:05 10° N
SJ-6B 4.4 17:13:13 10° E 17:15:35 16° ENE 17:17:59 10° NNE
SJ-11-01 4.5 17:11:10 10° SE 17:15:43 53° ENE 17:20:18 10° N
CZ-4 R/B 1.6 17:13:01 10° S 17:17:14 80° WSW 17:21:25 10° NNW
CZ-2D R/B 3.8 17:14:02 10° S 17:17:53 64° W 17:21:45 10° NNW
Cosmos 1782 Rocket 4.2 17:14:32 10° SSW 17:18:56 64° WNW 17:23:24 10° N
GP-B 4.4 17:15:04 10° N 17:19:20 47° W 17:23:35 10° SSW
Okean-O 3.1 17:15:10 10° S 17:19:34 67° WSW 17:24:00 10° NNW
Cosmos 1674 3.6 17:17:38 10° N 17:21:02 29° ENE 17:24:25 10° SE
MOS 1 Rocket 3.6 17:19:41 10° NNE 17:23:44 35° E 17:27:40 10° SSE
In-Cosmos 22 4.0 17:23:08 10° N 17:28:28 76° ENE 17:33:52 10° SSE
ARGOS 3.3 17:24:25 10° SE 17:29:37 54° ENE 17:34:52 10° N
NOSS 3-2 (A) 4.2 17:22:19 10° NW 17:29:47 79° SW 17:38:14 10° SSE
Cosmos 1048 Rocket 4.0 17:25:25 10° NNW 17:30:47 83° ENE 17:36:10 10° SSE
NOSS 2-2 (C) 3.8 17:27:24 10° SW 17:30:54 58° NW 17:34:55 10° NE
CZ-2C R/B 3.6 17:27:03 10° NE 17:31:40 26° E 17:36:17 10° SSE
FREGAT/IRIS 4.2 17:33:45 15° ENE 17:33:49 15° ENE 17:35:22 10° NNE
Cosmos 2082 Rocket 3.8 17:32:12 10° N 17:36:09 19° NE 17:39:26 12° ENE
Cosmos 1891 Rocket 4.4 17:30:39 10° S 17:36:44 80° E 17:42:46 10° N
DMSP B5D1-3 4.4 17:32:29 10° NNE 17:37:36 72° ESE 17:42:40 10° S
Cosmos 2151 Rocket 3.6 17:35:09 10° S 17:39:33 61° E 17:44:01 10° NNE
Lacrosse 5 rocket 3.0 17:37:29 10° WNW 17:41:16 28° N 17:45:05 10° ENE
Cosmos 1733 4.4 17:38:59 13° SE 17:41:22 21° E 17:44:20 10° NE
Cosmos 494 Rocket 4.0 17:38:31 10° NNW 17:43:48 71° ENE 17:49:04 10° SSE
HJ-1C 3.4 17:41:10 10° S 17:44:28 82° W 17:47:47 10° NNW
Meteor 1-15 Rocket 4.4 17:39:42 10° SSE 17:45:07 50° E 17:50:41 10° NNE
COSMO-SKYMED 1 4.5 17:45:01 10° N 17:48:57 34° WNW 17:52:51 10° SW
Nadezhda 4 Rocket 3.9 17:46:37 10° N 17:52:46 82° E 17:58:53 10° S
Ariane Rocket 3.2 17:47:54 10° SE 17:52:47 51° ENE 17:57:43 10° N
Cosmos 1805 3.7 17:49:12 10° SSE 17:52:51 39° E 17:56:31 10° NNE
H-2A R/B 2.1 17:48:45 10° S 17:53:45 78° WSW 17:58:56 10° NNW
SL-08 RB Rocket 3.7 17:50:20 10° SSE 17:54:50 61° ENE 17:59:19 10° N
Cosmos 1269 Rocket 4.2 17:50:04 10° NNW 17:55:18 52° ENE 17:59:06 18° SE
OBJECT-B 2.3 17:55:36 21° ENE 17:55:36 21° ENE 17:58:03 10° NNE
Exosat Rocket 3.6 17:53:36 10° S 17:58:50 55° ESE 18:03:43 10° NNE
USA 116 4.3 17:55:44 10° N 17:59:19 59° WNW 18:03:21 10° SSW
Cosmos 2263 Rocket 4.2 17:55:40 10° WSW 18:00:26 28° NW 18:05:15 10° NNE
KORONAS-FOTON 3.7 17:58:29 10° N 18:02:26 80° ENE 18:06:21 10° SSE
COSMOS 2406 3.6 17:57:10 10° NNW 18:02:40 47° NE 18:05:51 24° ESE
MetOp-A 4.3 17:58:58 15° SE 18:03:11 51° ENE 18:08:23 10° N
Cosmos 1844 Rocket 2.7 17:58:46 10° SSW 18:04:21 87° WNW 18:10:00 10° NNE
Cosmos 1626 2.6 18:03:11 10° N 18:06:41 38° ENE 18:07:28 34° ESE
NOSS 3-2 (C) 4.2 18:00:33 10° NW 18:08:01 74° SW 18:16:08 11° SSE
Cosmos 2278 Rocket 3.4 18:10:00 22° E 18:10:00 22° E 18:13:05 10° NE
IRS-1A Rocket 4.3 18:05:08 10° SSE 18:10:59 73° ENE 18:16:49 10° NNW
Cosmos 2034 Rocket 4.1 18:05:12 10° S 18:11:35 85° W 18:17:57 10° N
Cosmos 1844 3.6 18:06:06 10° SSW 18:11:48 88° ESE 18:17:28 10° NNE
USA 186 1.7 18:11:03 25° SSE 18:12:49 86° E 18:16:07 10° NNW
Meteor 2-5 Rocket 3.7 18:07:24 10° N 18:13:06 70° ENE 18:18:15 13° SSE
NOSS 3-4 (A) 3.5 18:07:44 10° SSW 18:13:24 50° ESE 18:19:26 10° NE
NOSS 3-4 (C) 3.5 18:07:51 10° SSW 18:13:30 49° ESE 18:19:32 10° NE
ISS -3.2 18:10:13 10° W 18:13:32 53° N 18:14:49 32° NE
NOSS 5 (C) 4.4 18:11:09 10° NW 18:14:18 77° SW 18:15:45 33° SSE
Meteor 1-24 Rocket 3.8 18:10:11 10° N 18:15:42 58° ENE 18:19:24 22° SSE
Lacrosse 4 Rocket 2.6 18:12:31 10° NNW 18:15:55 25° NE 18:16:33 24° ENE
Meteor 2-13 Rocket 4.4 18:11:08 10° N 18:17:21 84° E 18:23:29 10° S
Okean 1 Rocket 3.0 18:18:59 10° S 18:23:28 81° E 18:27:58 10° NNE
SL-14 R/B 3.3 18:21:52 10° N 18:25:46 57° ENE 18:26:27 49° ESE
Resurs 01 Rocket 2.4 18:25:52 33° ENE 18:26:08 33° ENE 18:30:09 10° N
CENTAUR R/B 3.5 18:19:04 10° NW 18:27:03 64° SW 18:34:46 14° SSE
Cosmos 1833 Rocket 2.9 18:22:36 10° NNW 18:28:10 54° NE 18:30:12 36° ESE
Cosmos 2251 Rocket 4.3 18:27:24 10° N 18:32:20 35° NE 18:33:15 33° ENE
Cosmos 1766 3.2 18:30:33 10° S 18:34:28 87° W 18:38:28 10° N
ATLAS 2AS CENTAUR R/B 3.0 18:28:11 10° SSW 18:36:02 67° ESE 18:43:50 10° NE
Cosmos 1634 Rocket 3.8 18:33:08 10° S 18:39:16 75° E 18:45:29 10° NNE
ATLAS 3B R/B 2.7 18:32:42 10° NW 18:39:33 72° NE 18:42:35 37° ESE
SPOT 3 Rocket 3.5 18:40:10 44° SE 18:41:40 64° ENE 18:46:47 10° N
ARIANE 5 R/B 3.8 18:42:31 27° NE 18:42:31 27° NE 18:45:27 10° N
Abrixas rocket 4.0 18:40:33 10° W 18:42:11 21° SW 18:42:11 21° SW
Cosmos 1125 Rocket 4.5 18:43:00 10° SW 18:48:09 49° WNW 18:53:21 10° NNE
Resurs 1-3 3.5 18:48:54 64° SE 18:49:32 81° ENE 18:53:58 10° NNW
SJ-6B 3.5 18:48:31 32° SSW 18:49:52 50° W 18:53:35 10° NNW
Cosmos 1892 Rocket 3.3 18:46:47 10° N 18:51:09 79° E 18:51:24 75° SE
Cosmos 1655 Rocket 4.2 18:45:45 10° N 18:51:50 49° ENE 18:52:53 45° ESE
Cosmos 2026 Rocket 4.2 18:51:04 10° NNW 18:57:26 72° W 19:02:17 18° S
CZ-2C R/B 3.4 19:06:49 10° N 19:12:16 56° WNW 19:17:44 10° SW
CRYOSAT 2 4.4 19:07:46 10° N 19:12:05 65° NE 19:12:05 65° NE
Cosmos 2180 Rocket 4.4 19:12:35 59° SE 19:13:33 68° E 19:19:53 10° NNE
Cosmos 1340 Rocket 3.5 19:15:11 53° WNW 19:15:11 53° WNW 19:19:04 10° N
Cosmos 2279 Rocket 3.9 19:12:59 35° S 19:15:50 86° E 19:22:08 10° N
MetOp-B 4.0 19:17:29 70° ENE 19:17:29 70° ENE 19:22:44 10° N
Cosmos 2098 Rocket 3.7 19:14:06 10° N 19:20:55 76° E 19:21:19 73° ESE
Cosmos 2082 Rocket 2.0 19:15:34 10° NNW 19:21:13 77° ENE 19:21:17 77° ENE
Lacrosse 5 rocket 2.4 19:16:57 10° NW 19:20:43 44° N 19:20:43 44° N
Spot 2 Rocket 4.0 19:25:14 48° NNE 19:25:14 48° NNE 19:29:12 10° N
BREEZE-M R/B 4.4 19:19:33 10° W 19:24:25 42° W 19:24:25 42° W
OBJECT-B 3.3 19:28:48 22° WNW 19:28:48 22° WNW 19:30:35 10° NW
Terra 3.7 19:42:50 21° NNE 19:42:50 21° NNE 19:44:49 10° N
COSMOS 2406 4.4 19:41:46 10° NW 19:46:48 33° WSW 19:47:56 31° SW
SPOT 1/Viking Rocket 4.2 19:48:44 50° N 19:48:44 50° N 19:52:34 10° NNW
ISS -0.5 19:47:16 10° WNW 19:47:46 14° WNW 19:47:46 14° WNW
Cosmos 2278 Rocket 2.5 19:51:32 57° W 19:52:17 63° WNW 19:57:55 10° NNE
Lacrosse 4 Rocket 3.4 19:50:52 10° NW 19:52:52 26° WNW 19:52:52 26° WNW
Cosmos 909 Rocket 4.2 19:53:48 10° NW 19:59:55 66° WSW 19:59:55 66° WSW
Cosmos 2266 Rocket 4.1 19:54:59 10° NNW 20:00:34 69° WNW 20:00:34 69° WNW
Resurs 01 Rocket 3.4 20:03:26 28° WNW 20:03:26 28° WNW 20:06:34 10° NNW
NOSS 3-4 (A) 4.4 19:58:39 10° WSW 20:04:22 45° NW 20:10:37 10° NE
NOSS 3-4 (C) 4.4 19:58:44 10° WSW 20:04:29 45° NW 20:10:43 10° NE
Cosmos 1833 Rocket 4.2 20:07:02 10° NW 20:11:48 29° WSW 20:11:54 29° WSW
ERS-1 Rocket 4.4 20:17:39 34° NNW 20:17:39 34° NNW 20:20:28 10° NNW
ATLAS 2AS CENTAUR R/B 3.9 20:19:52 10° WSW 20:27:29 46° NW 20:34:56 10° NE
ATLAS 3B R/B 3.9 20:23:54 10° NW 20:29:48 31° WSW 20:29:50 31° WSW
Cosmos 2082 Rocket 4.4 21:00:48 10° WNW 21:03:07 17° W 21:03:07 17° W
CZ-4C R/B 4.3 22:45:18 25° N 22:45:18 25° N 22:50:19 10° NE
Cosmos 2369 Rocket 4.5 23:10:31 19° N 23:10:31 19° N 23:12:46 10° N
SL-16 R/B 3.9 23:50:37 34° N 23:50:37 34° N 23:54:05 10° N
Resurs 1-4 Rocket 4.3 23:43:55 10° NNE 23:45:52 21° NE 23:45:52 21° NE
